• In Moldova, Republic
  • List of Countries
  • For 7 days
  • Water Temperature
  • Satellite Maps
  • Weather Map
  • Weather Widgets
  • user-avatar
    Login

    Hourly Weather Newcastle

    Today, 18 August, Friday

    Time Temperature Precipitation Wind Pressure Humidity
    00:00 +13°C° 0 mm 8 mps 756 mmHg 41%
    01:00 +13°C° 0 mm 8 mps 756 mmHg 42%
    02:00 +12°C° 0 mm 8 mps 756 mmHg 44%
    03:00 +12°C° 0 mm 8 mps 756 mmHg 47%
    04:00 +12°C° 0 mm 7 mps 755 mmHg 49%
    05:00 +11°C° 0 mm 7 mps 756 mmHg 52%
    06:00 +11°C° 0 mm 8 mps 756 mmHg 56%
    07:00 +11°C° 0 mm 8 mps 756 mmHg 59%
    08:00 +12°C° 0 mm 9 mps 756 mmHg 51%
    09:00 +13°C° 0 mm 9 mps 756 mmHg 44%
    10:00 +16°C° 0 mm 9 mps 756 mmHg 38%
    11:00 +16°C° 0 mm 10 mps 756 mmHg 35%
    12:00 +17°C° 0 mm 10 mps 756 mmHg 32%
    13:00 +17°C° 0 mm 11 mps 755 mmHg 29%
    14:00 +17°C° 0 mm 11 mps 755 mmHg 30%
    15:00 +16°C° 0 mm 10 mps 756 mmHg 31%
    16:00 +15°C° 0 mm 9 mps 756 mmHg 33%
    17:00 +13°C° 0 mm 9 mps 757 mmHg 36%
    18:00 +12°C° 0 mm 9 mps 757 mmHg 38%
    19:00 +11°C° 0 mm 8 mps 758 mmHg 41%
    20:00 +10°C° 0 mm 8 mps 758 mmHg 44%
    21:00 +9°C° 0 mm 8 mps 758 mmHg 46%
    22:00 +9°C° 0 mm 8 mps 758 mmHg 48%
    23:00 +9°C° 0 mm 8 mps 758 mmHg 49%

    Tomorrow, 19 August, Saturday

    Time Temperature Precipitation Wind Pressure Humidity
    00:00 +9°C° 0 mm 8 mps 758 mmHg 50%
    01:00 +9°C° 0 mm 8 mps 758 mmHg 51%
    02:00 +7°C° 0 mm 8 mps 759 mmHg 52%
    03:00 +7°C° 0 mm 8 mps 759 mmHg 54%
    04:00 +6°C° 0 mm 8 mps 759 mmHg 55%
    05:00 +6°C° 0 mm 8 mps 760 mmHg 56%
    06:00 +6°C° 0 mm 8 mps 760 mmHg 57%
    07:00 +6°C° 0 mm 8 mps 761 mmHg 57%
    08:00 +7°C° 0.1 mm 8 mps 761 mmHg 51%
    09:00 +10°C° 0.1 mm 9 mps 761 mmHg 45%
    10:00 +12°C° 0.1 mm 9 mps 761 mmHg 39%
    11:00 +13°C° 0.3 mm 9 mps 761 mmHg 37%
    12:00 +15°C° 0.3 mm 9 mps 761 mmHg 34%
    13:00 +16°C° 0.3 mm 9 mps 761 mmHg 32%
    14:00 +15°C° 0.5 mm 9 mps 761 mmHg 36%
    15:00 +15°C° 0.5 mm 9 mps 762 mmHg 39%
    16:00 +13°C° 0.5 mm 9 mps 762 mmHg 42%
    17:00 +12°C° 0.6 mm 9 mps 763 mmHg 49%
    18:00 +10°C° 0.6 mm 9 mps 763 mmHg 56%
    19:00 +9°C° 0.6 mm 8 mps 764 mmHg 63%
    20:00 +7°C° 0.5 mm 8 mps 764 mmHg 65%
    21:00 +7°C° 0.5 mm 8 mps 765 mmHg 66%
    22:00 +7°C° 0.5 mm 8 mps 765 mmHg 67%
    23:00 +6°C° 0.3 mm 8 mps 765 mmHg 66%

    Day after tomorrow, 20 August, Sunday

    Time Temperature Precipitation Wind Pressure Humidity
    00:00 +6°C° 0.3 mm 8 mps 765 mmHg 65%
    01:00 +5°C° 0.3 mm 8 mps 765 mmHg 64%
    02:00 +5°C° 0.2 mm 8 mps 765 mmHg 63%
    03:00 +5°C° 0.2 mm 8 mps 765 mmHg 61%
    04:00 +4°C° 0.2 mm 8 mps 765 mmHg 59%
    05:00 +4°C° 0.2 mm 7 mps 766 mmHg 59%
    06:00 +4°C° 0.2 mm 7 mps 766 mmHg 58%
    07:00 +3°C° 0.2 mm 7 mps 767 mmHg 58%
    08:00 +5°C° 0.2 mm 6 mps 767 mmHg 54%
    09:00 +9°C° 0.2 mm 6 mps 766 mmHg 50%
    10:00 +11°C° 0.2 mm 6 mps 766 mmHg 46%
    11:00 +13°C° 0.2 mm 6 mps 766 mmHg 47%
    12:00 +14°C° 0.2 mm 6 mps 765 mmHg 48%
    13:00 +16°C° 0.2 mm 6 mps 765 mmHg 48%
    14:00 +15°C° 0.2 mm 5 mps 764 mmHg 53%
    15:00 +15°C° 0.2 mm 5 mps 764 mmHg 58%
    16:00 +14°C° 0.2 mm 5 mps 764 mmHg 63%
    17:00 +13°C° 0.3 mm 4 mps 765 mmHg 71%
    18:00 +12°C° 0.3 mm 4 mps 765 mmHg 78%
    19:00 +10°C° 0.3 mm 4 mps 766 mmHg 85%
    20:00 +10°C° 0 mm 3 mps 766 mmHg 88%
    21:00 +9°C° 0 mm 3 mps 766 mmHg 91%
    22:00 +9°C° 0 mm 2 mps 766 mmHg 94%
    23:00 +8°C° 0.1 mm 2 mps 766 mmHg 95%

    21 August, Monday

    Time Temperature Precipitation Wind Pressure Humidity
    00:00 +8°C° 0.1 mm 2 mps 765 mmHg 96%
    01:00 +7°C° 0.1 mm 2 mps 765 mmHg 97%
    02:00 +7°C° 0 mm 2 mps 765 mmHg 97%
    03:00 +7°C° 0 mm 2 mps 764 mmHg 96%
    04:00 +7°C° 0 mm 2 mps 764 mmHg 96%
    05:00 +8°C° 0 mm 2 mps 764 mmHg 94%
    06:00 +8°C° 0 mm 2 mps 765 mmHg 92%
    07:00 +8°C° 0 mm 2 mps 765 mmHg 90%
    08:00 +10°C° 0 mm 2 mps 764 mmHg 83%
    09:00 +12°C° 0 mm 2 mps 764 mmHg 75%
    10:00 +14°C° 0 mm 1 mps 764 mmHg 68%
    11:00 +14°C° 0.1 mm 2 mps 763 mmHg 67%
    12:00 +15°C° 0.1 mm 2 mps 763 mmHg 66%
    13:00 +14°C° 0.1 mm 3 mps 762 mmHg 65%
    14:00 +16°C° 0 mm 3 mps 762 mmHg 60%
    15:00 +17°C° 0 mm 3 mps 761 mmHg 54%
    16:00 +17°C° 0 mm 3 mps 761 mmHg 49%
    17:00 +16°C° 0 mm 3 mps 761 mmHg 52%
    18:00 +13°C° 0 mm 3 mps 762 mmHg 56%
    19:00 +12°C° 0 mm 3 mps 762 mmHg 59%
    20:00 +11°C° 0 mm 3 mps 762 mmHg 59%
    21:00 +11°C° 0 mm 3 mps 762 mmHg 59%
    22:00 +11°C° 0 mm 3 mps 762 mmHg 59%
    23:00 +10°C° 0 mm 3 mps 762 mmHg 61%

    22 August, Tuesday

    Time Temperature Precipitation Wind Pressure Humidity
    00:00 +10°C° 0 mm 2 mps 761 mmHg 64%
    01:00 +10°C° 0 mm 2 mps 761 mmHg 66%
    02:00 +10°C° 0 mm 1 mps 761 mmHg 66%
    03:00 +10°C° 0 mm 1 mps 760 mmHg 67%
    04:00 +10°C° 0 mm 1 mps 760 mmHg 67%
    05:00 +9°C° 0 mm 1 mps 761 mmHg 68%
    06:00 +9°C° 0 mm 1 mps 761 mmHg 69%
    07:00 +9°C° 0 mm 1 mps 761 mmHg 70%
    08:00 +12°C° 0 mm 1 mps 761 mmHg 59%
    09:00 +15°C° 0 mm 1 mps 761 mmHg 48%
    10:00 +20°C° 0 mm 1 mps 761 mmHg 37%
    11:00 +21°C° 0 mm 1 mps 761 mmHg 34%
    12:00 +22°C° 0 mm 1 mps 760 mmHg 31%
    13:00 +24°C° 0 mm 1 mps 760 mmHg 28%
    14:00 +23°C° 0 mm 2 mps 760 mmHg 31%
    15:00 +23°C° 0 mm 2 mps 760 mmHg 34%
    16:00 +21°C° 0 mm 2 mps 760 mmHg 36%
    17:00 +19°C° 0 mm 3 mps 761 mmHg 45%
    18:00 +17°C° 0 mm 3 mps 762 mmHg 55%
    19:00 +13°C° 0 mm 3 mps 762 mmHg 64%
    20:00 +12°C° 0 mm 3 mps 763 mmHg 67%
    21:00 +12°C° 0 mm 3 mps 763 mmHg 70%
    22:00 +11°C° 0 mm 3 mps 763 mmHg 73%
    23:00 +11°C° 0 mm 3 mps 763 mmHg 74%

    23 August, Wednesday

    Time Temperature Precipitation Wind Pressure Humidity
    00:00 +10°C° 0 mm 3 mps 763 mmHg 75%
    01:00 +10°C° 0 mm 3 mps 763 mmHg 76%
    02:00 +9°C° 0 mm 3 mps 763 mmHg 79%
    03:00 +9°C° 0 mm 3 mps 763 mmHg 82%
    04:00 +9°C° 0 mm 3 mps 763 mmHg 85%
    05:00 +9°C° 0 mm 3 mps 764 mmHg 85%
    06:00 +9°C° 0 mm 3 mps 764 mmHg 86%
    07:00 +8°C° 0 mm 4 mps 764 mmHg 87%
    08:00 +12°C° 0 mm 3 mps 764 mmHg 75%
    09:00 +14°C° 0 mm 3 mps 764 mmHg 63%
    10:00 +18°C° 0 mm 3 mps 764 mmHg 52%
    11:00 +19°C° 0 mm 3 mps 764 mmHg 46%
    12:00 +21°C° 0 mm 2 mps 763 mmHg 41%
    13:00 +23°C° 0 mm 2 mps 763 mmHg 35%
    14:00 +23°C° 0 mm 2 mps 763 mmHg 36%
    15:00 +21°C° 0 mm 3 mps 763 mmHg 37%
    16:00 +21°C° 0 mm 3 mps 763 mmHg 38%
    17:00 +19°C° 0 mm 3 mps 764 mmHg 49%
    18:00 +16°C° 0 mm 3 mps 764 mmHg 60%
    19:00 +13°C° 0 mm 3 mps 765 mmHg 70%
    20:00 +12°C° 0 mm 3 mps 765 mmHg 75%
    21:00 +11°C° 0 mm 3 mps 766 mmHg 80%
    22:00 +11°C° 0 mm 4 mps 766 mmHg 85%
    23:00 +10°C° 0 mm 4 mps 766 mmHg 85%
    Show more